Wind_Speed
61 62 63 63 62 64 64 67 68 68 70 72 73 74 76 77 76 77 78 77 76 75 75 74 73 73 73 74 74 74 75 75 75 76 76 76 77 78 78 79 79 79 78
65 64 61 60 58 57 61 61 65 67 68 69 68 71 73 76 78 78 78 78 79 80 79 79 78 78 79 78 78 78 79 79 79 79 80 80 81 81 81 82 80 80 79
67 66 66 64 61 56 55 55 57 57 62 64 66 68 69 73 74 76 79 78 79 79 79 80 80 80 80 80 80 82 82 81 82 82 82 83 81 81 82 83 83 79 77
67 64 63 63 64 61 56 53 52 52 51 54 58 62 66 67 68 71 74 78 77 76 75 74 75 77 79 79 80 81 81 80 81 83 84 83 82 81 80 81 79 76 73
66 63 60 60 61 60 58 51 51 52 45 46 50 55 54 55 60 62 65 69 72 70 70 68 67 70 71 72 75 75 77 78 79 80 80 80 77 74 75 74 72 64 61
61 61 57 55 53 53 54 50 47 43 40 40 43 42 38 39 43 50 54 63 64 60 58 59 58 58 60 62 64 65 67 67 68 69 70 71 69 66 66 62 58 49 39
61 60 58 53 50 49 50 48 43 36 32 35 37 30 28 35 35 36 38 37 43 47 49 52 55 54 56 58 57 57 55 56 57 58 57 57 57 57 54 44 38 34 30
66 63 61 58 53 52 49 44 38 28 23 28 27 27 22 15 17 16 23 20 25 37 41 47 51 54 54 54 52 52 47 48 46 48 49 47 47 42 37 33 29 29 24
74 68 67 63 56 54 49 39 32 25 22 22 19 22 26 23 18 19 21 20 17 23 28 36 40 42 43 41 40 39 41 42 42 41 40 40 37 35 27 28 28 26 25
82 78 74 62 56 49 45 35 33 30 28 33 37 37 37 34 33 30 24 25 15 14 20 17 20 22 21 20 21 24 23 25 28 30 31 31 30 28 25 29 29 26 24
66 65 60 53 50 41 40 37 38 34 37 42 47 48 42 38 38 37 34 30 32 27 24 12 11 14 16 15 16 15 13 14 17 20 21 23 26 30 28 31 29 23 18
59 61 56 47 36 35 37 38 38 37 37 38 57 56 48 47 44 35 33 32 31 28 27 21 23 16 15 13 14 18 13 13 9 13 17 20 22 25 33 31 33 29 25
53 55 48 37 31 33 35 37 35 34 41 44 45 55 51 55 54 46 36 32 33 30 31 29 26 24 19 17 10 11 10 12 14 17 16 21 25 27 31 34 33 29 26
48 49 42 30 31 32 35 34 33 31 35 36 44 48 56 51 54 47 48 38 36 42 41 34 33 28 28 17 17 22 16 19 18 18 20 22 25 29 32 35 33 28 28
47 45 37 30 31 34 34 32 32 28 28 33 39 44 52 55 57 54 49 47 46 44 42 34 31 31 27 22 28 23 22 29 26 14 21 22 30 28 26 25 26 29 28
48 41 36 31 32 33 33 31 31 28 26 29 36 36 53 53 62 64 54 51 51 50 47 38 37 27 27 26 22 24 21 14 12 11 13 21 30 32 28 29 21 25 32
45 39 36 31 31 32 31 30 31 26 27 30 33 33 46 54 61 65 61 55 51 52 51 45 43 30 30 27 27 22 21 14 10 9 14 19 24 34 34 22 22 26 30
40 38 36 29 30 28 28 29 31 28 30 29 31 32 42 45 62 64 62 55 52 48 41 32 32 32 34 34 32 26 20 27 20 17 17 21 26 31 40 30 27 23 26
39 40 32 27 25 24 25 29 31 29 28 30 31 31 38 40 52 64 64 61 46 51 49 45 36 36 36 33 30 22 19 21 26 22 18 22 29 31 36 40 34 27 27
40 38 29 24 22 22 24 27 27 23 27 28 28 26 29 37 43 48 66 59 48 50 47 46 44 41 37 34 28 27 29 25 22 26 21 25 28 33 37 41 39 40 31
42 33 24 21 18 17 20 24 21 21 20 23 26 24 31 35 43 38 44 59 56 51 52 52 47 40 38 35 38 36 36 32 37 33 29 29 29 33 40 43 43 42 43
39 29 23 18 15 14 17 17 16 20 17 25 25 27 26 23 33 31 37 46 47 51 53 49 49 44 41 38 41 38 34 40 34 32 37 33 37 38 41 46 46 48 50
36 27 23 19 18 13 12 14 14 17 17 27 30 26 23 26 29 33 35 41 44 47 47 49 49 46 47 49 45 47 49 46 45 44 45 44 43 46 49 51 57 51 54
34 28 24 20 17 15 11 12 9 10 14 30 34 33 35 27 30 33 37 37 38 40 42 43 44 48 49 50 46 43 47 46 45 50 48 45 45 48 51 53 52 47 49
31 28 24 20 17 13 9 7 5 6 11 31 34 35 31 26 29 36 37 36 39 42 41 41 44 50 49 49 49 47 46 48 50 48 48 45 48 50 53 51 44 45 48
33 28 28 22 17 15 10 5 2 5 10 21 28 34 32 30 27 27 26 35 41 42 43 43 46 47 48 44 47 44 44 47 47 47 50 50 51 54 54 45 42 46 52
Wind_Direction
276 273 272 271 269 267 266 261 259 259 259 259 258 257 258 258 255 255 256 258 259 260 261 262 262 263 264 264 265 266 267 267 268 269 270 271 272 273 274 275 276 277 278
278 278 277 276 274 271 268 268 264 262 261 260 259 258 259 259 258 255 254 254 256 258 260 261 260 260 262 263 264 265 265 266 267 268 270 271 272 274 275 276 277 279 281
279 278 277 277 278 276 272 271 268 267 263 262 261 261 261 260 260 258 256 254 253 254 255 258 260 261 262 263 262 263 263 264 266 267 269 270 273 275 274 276 278 282 283
279 279 279 279 278 277 277 275 269 269 268 264 262 262 261 260 260 260 259 257 255 254 253 253 255 257 258 260 262 263 265 265 265 267 269 269 272 272 274 276 279 283 285
277 276 276 276 277 276 276 279 273 270 278 271 265 261 263 264 262 261 258 257 255 256 256 255 255 257 257 258 259 261 263 264 265 266 267 270 271 273 274 277 281 284 283
275 274 274 275 279 281 274 275 271 273 272 269 263 262 265 263 259 260 263 258 255 253 252 251 251 253 254 255 256 258 261 262 264 265 266 267 270 272 274 278 278 278 276
275 275 275 277 281 282 278 271 276 271 265 262 259 263 254 257 268 268 257 261 253 249 244 244 246 248 250 251 255 257 260 262 262 263 266 269 270 271 276 273 271 263 256
276 277 278 280 282 284 275 269 265 258 261 269 263 254 255 289 311 276 273 243 233 230 234 241 243 245 248 253 258 260 259 258 258 265 269 269 269 271 267 267 248 243 229
276 276 279 283 284 280 275 261 245 239 237 240 227 201 217 223 237 243 245 251 224 228 233 238 246 250 253 259 262 260 257 261 264 262 265 266 265 264 261 256 233 233 224
275 274 281 278 274 273 270 250 243 221 223 210 204 204 212 212 225 224 222 241 204 233 242 239 246 252 242 234 249 252 254 258 257 258 260 264 265 260 248 242 231 221 238
280 273 269 265 263 267 259 244 240 226 217 215 211 212 222 222 223 228 228 219 215 216 213 212 217 200 194 204 230 249 259 267 267 264 268 268 261 251 247 236 235 227 250
268 265 261 257 259 256 249 245 244 224 221 219 214 216 228 230 221 225 223 224 210 209 212 205 209 215 216 225 241 252 265 263 271 268 261 271 260 254 241 235 234 234 251
266 259 253 252 250 246 248 250 250 228 223 232 229 228 227 233 232 221 224 228 223 211 202 205 218 224 214 209 223 245 232 246 295 298 286 269 253 252 244 238 239 244 257
257 252 247 243 242 245 247 250 253 248 243 244 237 233 227 227 228 224 224 220 229 228 230 215 217 234 229 236 241 241 246 262 282 302 289 284 262 252 241 240 240 250 258
254 250 238 233 240 244 250 246 250 263 258 249 240 235 226 228 223 216 223 224 224 236 226 220 228 230 234 249 252 254 260 264 272 282 298 278 253 248 244 241 252 258 262
249 243 235 226 236 244 247 247 256 270 266 257 244 247 229 223 219 219 220 222 226 233 234 225 230 231 245 238 233 249 270 266 257 256 303 289 259 249 239 243 256 271 264
241 235 231 224 237 244 245 251 263 273 270 260 248 250 228 222 219 221 222 222 226 234 234 238 243 236 222 223 228 252 259 271 275 277 272 297 289 248 245 244 272 275 253
230 232 223 226 239 244 248 262 274 276 274 257 253 249 232 229 219 220 223 222 225 226 228 227 219 216 217 225 246 280 275 248 268 274 278 278 277 269 250 248 263 270 257
221 226 218 227 241 244 261 272 276 280 267 253 252 238 231 231 220 221 219 222 225 226 229 231 223 232 232 244 268 263 234 247 270 270 286 277 274 260 255 249 256 267 270
217 218 216 228 230 250 264 273 281 275 269 253 237 228 230 218 212 220 219 223 225 224 226 230 235 235 237 251 251 254 256 255 268 273 272 290 281 263 251 246 257 258 260
214 211 214 212 233 251 264 277 277 276 260 232 216 212 216 213 212 213 218 223 231 233 230 233 238 235 244 245 258 259 259 254 266 276 275 287 279 268 260 253 255 257 262
209 205 202 212 228 248 273 271 276 273 240 207 210 205 208 206 203 205 211 215 223 228 236 234 243 243 239 254 257 261 248 261 275 262 278 278 281 269 266 263 259 257 257
204 195 199 214 217 244 276 278 283 266 221 196 205 207 201 195 193 202 203 212 220 228 235 244 246 244 253 256 258 265 256 268 275 272 274 277 271 266 264 264 268 265 259
197 196 206 203 215 236 273 267 298 279 217 199 201 204 208 191 194 195 201 205 216 226 232 239 245 247 251 258 258 255 262 271 267 275 271 268 266 264 264 265 272 267 260
192 196 199 202 211 225 257 263 310 316 209 200 200 207 206 208 209 200 203 212 217 226 230 237 240 244 252 255 260 266 266 264 266 264 261 262 264 265 264 267 270 267 269
196 200 193 198 204 217 232 252 227 47 191 198 204 202 218 224 220 217 222 225 227 231 233 240 241 248 251 251 260 258 259 262 264 263 263 263 261 263 258 260 261 269 268
Height
10798 10798 10797 10799 10802 10801 10801 10803 10805 10806 10807 10807 10810 10811 10811 10812 10817 10820 10821 10822 10824 10826 10828 10830 10833 10835 10836 10837 10837 10838 10838 10839 10839 10839 10840 10839 10839 10837 10837 10837 10837 10836 10839
10787 10786 10786 10786 10788 10789 10787 10788 10790 10792 10794 10795 10795 10798 10798 10800 10800 10804 10807 10811 10812 10813 10815 10818 10821 10822 10822 10823 10825 10827 10826 10827 10828 10829 10828 10828 10826 10826 10826 10826 10827 10828 10830
10775 10774 10775 10774 10774 10775 10776 10777 10778 10777 10779 10780 10782 10783 10786 10784 10786 10789 10791 10795 10799 10801 10803 10805 10806 10806 10809 10811 10814 10814 10815 10816 10816 10817 10817 10817 10817 10817 10815 10816 10817 10821 10821
10761 10763 10764 10762 10761 10763 10764 10766 10767 10766 10767 10768 10769 10771 10769 10772 10773 10774 10774 10778 10783 10788 10792 10793 10793 10794 10796 10798 10800 10801 10802 10804 10804 10804 10804 10806 10806 10806 10806 10806 10809 10811 10811
10747 10751 10753 10751 10751 10752 10753 10755 10755 10756 10758 10755 10757 10755 10758 10761 10759 10758 10758 10762 10769 10772 10776 10778 10778 10779 10782 10786 10787 10788 10789 10791 10791 10792 10792 10794 10795 10797 10796 10798 10802 10802 10802
10735 10737 10741 10740 10740 10741 10742 10744 10745 10748 10748 10746 10744 10748 10750 10748 10745 10745 10745 10748 10754 10760 10760 10762 10765 10767 10770 10773 10775 10776 10777 10779 10780 10781 10781 10784 10786 10787 10788 10792 10793 10793 10793
10722 10723 10727 10728 10729 10730 10732 10734 10735 10737 10738 10737 10737 10742 10741 10742 10741 10739 10739 10736 10742 10746 10747 10749 10753 10755 10757 10760 10764 10765 10769 10770 10771 10773 10774 10777 10778 10778 10782 10782 10783 10784 10785
10704 10708 10712 10715 10717 10720 10720 10724 10728 10728 10730 10730 10733 10736 10742 10742 10738 10735 10732 10728 10729 10732 10735 10739 10742 10744 10748 10752 10757 10758 10760 10762 10762 10766 10769 10769 10769 10771 10772 10774 10775 10777 10780
10687 10694 10698 10701 10704 10708 10710 10712 10716 10719 10723 10724 10728 10732 10730 10734 10732 10731 10728 10726 10725 10728 10730 10732 10736 10739 10743 10748 10751 10752 10753 10755 10757 10758 10760 10762 10763 10764 10766 10768 10769 10771 10774
10673 10680 10684 10688 10690 10695 10700 10701 10702 10709 10714 10716 10719 10719 10719 10721 10720 10722 10720 10721 10723 10726 10726 10730 10732 10734 10738 10742 10745 10748 10749 10749 10750 10752 10753 10754 10756 10758 10760 10761 10764 10766 10769
10663 10666 10666 10672 10676 10682 10688 10690 10692 10696 10701 10705 10706 10706 10710 10712 10712 10715 10715 10714 10716 10719 10723 10727 10729 10730 10733 10737 10741 10743 10744 10745 10746 10747 10747 10749 10750 10751 10753 10755 10758 10760 10762
10650 10649 10653 10659 10665 10672 10677 10678 10681 10687 10690 10692 10694 10697 10701 10703 10706 10708 10709 10709 10709 10716 10717 10723 10726 10727 10730 10733 10738 10740 10740 10742 10742 10743 10743 10745 10745 10745 10747 10750 10752 10754 10756
10637 10638 10643 10650 10654 10662 10666 10667 10670 10675 10679 10680 10682 10685 10691 10693 10697 10700 10702 10702 10706 10709 10715 10718 10722 10723 10726 10728 10732 10736 10736 10737 10738 10738 10738 10740 10739 10739 10741 10743 10746 10748 10750
10626 10629 10636 10641 10647 10652 10658 10659 10661 10665 10667 10667 10670 10675 10680 10682 10686 10690 10693 10697 10701 10704 10709 10713 10716 10718 10721 10725 10728 10731 10732 10733 10734 10732 10732 10733 10734 10735 10736 10737 10740 10742 10743
10618 10623 10628 10633 10639 10644 10649 10651 10653 10655 10655 10657 10659 10663 10668 10672 10674 10681 10684 10690 10696 10698 10702 10709 10711 10714 10718 10721 10723 10725 10728 10729 10729 10729 10728 10728 10730 10731 10731 10733 10735 10737 10736
10610 10617 10622 10626 10632 10637 10640 10643 10644 10645 10647 10647 10649 10652 10656 10662 10666 10670 10676 10682 10688 10691 10697 10700 10705 10711 10712 10714 10718 10721 10723 10723 10723 10724 10723 10722 10723 10725 10727 10728 10728 10729 10730
10604 10610 10616 10620 10626 10629 10632 10634 10635 10635 10636 10636 10638 10642 10646 10652 10656 10662 10668 10675 10681 10684 10689 10695 10700 10704 10706 10708 10712 10714 10717 10717 10718 10718 10719 10718 10718 10720 10723 10723 10724 10723 10722
10597 10604 10609 10614 10618 10621 10625 10625 10625 10625 10625 10626 10629 10631 10635 10640 10649 10656 10661 10669 10675 10678 10683 10689 10692 10697 10700 10702 10707 10709 10711 10713 10714 10715 10714 10714 10714 10715 10717 10718 10718 10719 10719
10591 10599 10604 10608 10612 10614 10616 10617 10617 10617 10616 10618 10620 10622 10626 10632 10639 10646 10653 10662 10667 10673 10677 10681 10687 10691 10695 10698 10701 10702 10704 10707 10709 10710 10709 10709 10709 10709 10710 10711 10712 10713 10713
10586 10593 10598 10603 10606 10609 10610 10609 10609 10608 10607 10609 10611 10615 10619 10624 10630 10638 10647 10654 10662 10667 10670 10675 10680 10686 10689 10692 10694 10696 10699 10700 10702 10702 10703 10703 10703 10703 10703 10703 10704 10706 10705
10580 10587 10591 10597 10601 10603 10603 10603 10603 10601 10599 10600 10604 10609 10614 10618 10623 10631 10639 10648 10656 10660 10663 10670 10674 10679 10681 10684 10687 10688 10690 10692 10693 10694 10694 10694 10694 10695 10695 10696 10696 10697 10698
10575 10581 10586 10591 10594 10598 10597 10597 10597 10595 10594 10596 10599 10605 10609 10613 10618 10626 10634 10641 10647 10651 10657 10662 10666 10671 10673 10677 10679 10682 10681 10682 10684 10684 10684 10684 10684 10684 10685 10686 10688 10689 10689
10570 10575 10581 10585 10589 10592 10592 10592 10591 10590 10589 10592 10595 10601 10604 10609 10614 10621 10629 10636 10642 10646 10650 10655 10659 10662 10665 10669 10671 10671 10671 10672 10673 10674 10675 10674 10674 10674 10675 10675 10675 10678 10679
10563 10570 10576 10580 10585 10588 10588 10588 10588 10585 10585 10588 10592 10597 10599 10606 10610 10618 10624 10631 10636 10640 10644 10647 10651 10653 10656 10659 10661 10660 10663 10661 10663 10663 10663 10662 10664 10664 10665 10665 10667 10667 10668
10558 10565 10570 10575 10580 10583 10584 10584 10584 10581 10582 10586 10589 10595 10598 10603 10609 10613 10618 10624 10629 10633 10636 10640 10643 10643 10646 10649 10650 10652 10653 10653 10652 10652 10652 10652 10652 10652 10654 10656 10656 10656 10657
10553 10560 10565 10571 10576 10579 10580 10581 10581 10579 10579 10582 10587 10591 10595 10600 10604 10609 10613 10617 10622 10626 10629 10631 10634 10635 10636 10637 10640 10641 10641 10642 10642 10643 10642 10642 10642 10641 10642 10644 10646 10646 10646